Location: Écuvilly
(49.6505°N, 2.9206°E)
Time: 16:25:08
(UTC+00:00)

Cosmos 2221 Rocket - Pass Details

Date: 17 November 2025
Orbit: 614 x 642 km, 82.5° (Epoch: 12 December)

Event Time Altitude Azimuth Distance (km) Brightness Sun altitude
Rises 16:39:45 0° 346° (NNW) 2,945 6.9 -6.2°
Reaches altitude 10° 16:42:02 10° 342° (NNW) 2,027 6.2 -6.6°
Maximum altitude 16:46:25 55° 265° (W) 762 4.5 -7.2°
Drops below altitude 10° 16:50:44 10° 188° (S) 1,993 6.6 -7.9°
Sets 16:52:58 0° 184° (S) 2,890 7.3 -8.2°
